Вернуться в каталог

STARLINK-30793

АктивенСвязьVLEO
NORAD 58185·PAYLOAD·🇺🇸 United States

Запущен Oct 30, 2023 с Cape Canaveral Space Force Station

Loading…

Ближайшие Пролёты (ближайшие 24 часа)

TLE

СвежийSource: CelesTrak SupGP

Эпоха: Sep 15, 2026, 02:05 UTC

1 58185C 23167L   26258.08729167  .00051707  00000+0  18728-2 0  2584
2 58185  43.0028 153.7821 0001447 261.4610   2.8394 15.27554031    19

Отслеживайте STARLINK-30793 в реальном времени с AllMySat

Download on the App Store